GFSCGP_prec_precacc_273.txt.gz
Total_Precipitation_Accumulation
0.00 0.00 0.00 0.01 0.01 0.03 0.19 0.42 1.21 1.90 2.20 3.36 3.13 2.60 1.55 1.26 0.98 1.29 0.87 0.21 0.07 0.11 0.06 0.02 0.07 0.10 0.05 0.04 0.07 0.13 0.28 0.42 0.64 0.67 0.71 0.83 0.63 0.83 0.97 1.03 0.94 1.01 0.89 1.05
0.00 0.00 0.00 0.00 0.00 0.02 0.03 0.37 0.94 1.23 1.44 2.32 3.70 2.83 2.37 1.55 0.97 0.93 1.21 0.68 0.25 0.20 0.16 0.04 0.05 0.05 0.04 0.03 0.03 0.15 0.31 0.40 0.34 0.22 0.16 0.53 0.85 1.39 1.78 1.10 1.11 1.27 0.69 0.76
0.00 0.00 0.00 0.00 0.02 0.00 0.06 0.30 0.66 0.89 0.63 1.25 2.98 4.05 3.24 2.19 1.53 1.34 0.75 0.56 0.44 0.19 0.19 0.21 0.12 0.05 0.04 0.01 0.01 0.02 0.14 0.25 0.29 0.27 0.30 0.92 1.67 2.47 2.17 2.04 0.96 0.73 0.88 0.62
0.00 0.00 0.00 0.00 0.00 0.01 0.13 0.20 0.62 1.37 0.80 0.86 0.65 2.59 3.89 2.40 2.05 1.74 0.76 0.50 0.32 0.30 0.37 0.43 0.24 0.10 0.03 0.03 0.05 0.04 0.14 0.24 0.20 0.34 0.28 0.75 1.42 1.61 1.16 0.78 0.57 0.71 1.01 0.93
0.00 0.00 0.01 0.00 0.02 0.04 0.06 0.18 0.56 0.67 0.63 0.28 0.22 0.78 1.78 2.08 1.98 2.07 0.88 0.42 0.49 0.72 0.28 0.20 0.14 0.16 0.20 0.15 0.39 0.34 0.22 0.32 0.31 0.41 0.80 0.70 0.83 0.91 1.10 0.88 1.28 1.36 1.21 1.41
0.00 0.00 0.00 0.00 0.03 0.04 0.06 0.08 0.32 0.59 0.46 0.34 0.11 0.29 1.00 1.43 1.01 1.39 0.88 0.43 0.29 0.47 0.29 0.30 0.41 0.30 0.30 0.55 0.88 0.40 0.27 0.26 0.44 0.52 0.59 0.90 1.56 2.03 1.83 2.40 1.65 1.05 0.96 1.86
0.00 0.00 0.00 0.00 0.01 0.02 0.03 0.06 0.34 0.42 0.36 0.41 0.18 0.26 0.54 0.89 0.62 0.60 1.13 0.75 0.59 0.55 0.78 0.40 0.46 0.26 0.22 0.24 0.50 0.24 0.28 0.28 0.27 0.41 0.46 0.77 2.08 3.34 2.70 2.26 1.31 1.29 1.20 1.44
0.00 0.00 0.00 0.00 0.00 0.01 0.01 0.01 0.13 0.31 0.38 0.54 0.34 0.69 0.36 0.25 0.29 0.44 0.60 0.80 1.31 1.02 0.86 0.98 0.72 0.47 0.22 0.17 0.19 0.10 0.30 0.29 0.31 0.51 0.75 1.96 5.18 4.01 2.35 2.19 1.81 0.99 1.13 1.26
0.00 0.00 0.00 0.00 0.00 0.00 0.00 0.01 0.04 0.13 0.18 0.36 0.38 0.71 0.46 0.19 0.22 0.21 0.50 0.92 1.18 1.14 1.02 2.61 1.37 0.91 0.57 0.15 0.11 0.23 0.57 0.43 0.49 0.72 1.75 3.07 3.51 3.58 3.58 3.25 2.52 1.37 1.37 1.30
0.00 0.00 0.00 0.00 0.00 0.01 0.00 0.01 0.03 0.07 0.23 0.24 0.57 1.07 1.17 0.53 1.13 0.58 0.41 0.61 0.67 1.16 1.24 1.29 1.22 1.04 0.82 0.47 0.35 0.38 0.59 0.63 0.93 1.41 2.19 2.15 2.66 2.36 2.28 2.32 1.85 1.42 2.04 2.58
0.01 0.00 0.01 0.00 0.02 0.03 0.01 0.00 0.01 0.01 0.11 0.31 0.58 0.94 1.08 0.88 1.48 1.34 0.79 0.48 0.53 0.59 1.05 1.72 2.33 2.69 2.05 1.67 1.44 1.04 1.36 2.04 2.59 2.70 2.81 3.24 2.94 2.01 1.65 1.53 1.30 1.22 1.71 2.04
0.02 0.01 0.01 0.01 0.03 0.09 0.12 0.07 0.06 0.02 0.16 0.21 0.30 0.71 0.81 0.93 0.98 1.20 1.84 1.10 0.88 0.70 0.95 1.17 1.72 3.07 4.51 3.07 3.66 4.78 4.07 4.04 4.32 3.84 3.38 3.44 2.57 2.27 1.51 0.97 1.07 1.71 1.69 1.63
0.09 0.06 0.06 0.09 0.08 0.03 0.00 0.02 0.17 0.14 0.14 0.07 0.12 0.24 0.47 0.65 1.20 1.47 2.07 1.93 1.37 1.78 2.54 1.44 1.30 1.67 3.06 3.07 3.12 6.18 7.90 7.37 5.90 4.16 3.70 2.64 2.74 1.73 1.42 1.10 0.82 0.93 1.34 1.63
0.21 0.06 0.02 0.19 0.23 0.09 0.02 0.02 0.01 0.06 0.09 0.03 0.06 0.15 0.48 0.75 1.49 0.80 1.40 2.44 2.00 1.97 1.98 2.61 2.71 2.95 3.68 4.57 4.87 5.43 5.15 4.93 5.26 3.84 3.87 2.91 2.83 2.63 1.96 1.74 1.49 1.19 1.17 0.96
0.12 0.02 0.00 0.03 0.01 0.01 0.04 0.04 0.03 0.01 0.01 0.06 0.37 0.15 0.71 0.47 0.39 0.77 0.62 0.58 0.65 0.87 1.02 1.14 1.56 1.63 2.77 3.77 3.25 4.28 4.52 4.02 3.34 3.84 4.88 4.70 3.79 3.22 3.07 3.31 2.82 2.06 1.64 1.07
0.11 0.04 0.00 0.00 0.01 0.00 0.01 0.01 0.01 0.05 0.13 0.07 0.26 0.50 0.32 0.51 0.56 0.49 0.91 1.35 1.41 1.10 0.90 1.02 1.47 1.49 1.60 1.93 2.07 2.93 4.39 5.01 3.63 2.75 2.84 3.72 4.61 5.07 4.19 4.01 3.73 4.09 3.24 2.34
0.17 0.16 0.15 0.06 0.06 0.02 0.06 0.01 0.01 0.01 0.04 0.05 0.13 0.64 0.61 0.63 0.70 0.84 0.65 1.02 1.80 1.67 1.35 1.11 1.12 1.50 1.40 1.32 1.19 1.23 1.84 2.99 3.77 4.01 3.34 3.25 3.68 5.13 5.42 4.29 4.23 4.38 4.28 4.33
0.14 0.22 0.23 0.15 0.14 0.19 0.07 0.06 0.04 0.07 0.08 0.20 0.35 0.30 0.48 0.51 0.23 0.34 0.47 0.62 1.03 1.63 1.73 1.54 1.24 1.28 1.20 1.50 1.69 1.28 1.21 1.35 1.93 2.79 3.54 3.92 3.59 4.40 5.19 4.33 3.68 3.72 4.22 4.64
0.07 0.22 0.25 0.17 0.32 0.25 0.11 0.08 0.04 0.06 0.16 0.21 0.23 0.37 1.04 0.81 0.44 0.34 0.43 0.38 0.43 0.86 0.78 1.05 1.47 1.38 1.71 1.63 1.87 2.10 1.97 1.50 1.76 1.93 2.50 3.61 4.84 4.91 5.04 5.34 4.68 4.34 4.28 3.98
0.14 0.27 0.37 0.25 0.62 0.79 0.60 0.21 0.03 0.03 0.27 0.39 0.29 0.36 0.99 0.65 0.72 0.54 0.39 0.28 0.26 0.55 0.38 0.33 0.46 0.83 1.25 1.97 2.13 2.31 2.64 2.12 1.72 1.84 1.99 2.08 2.46 3.15 3.62 4.33 4.73 4.75 5.00 4.67
0.54 0.52 0.44 0.38 0.70 0.71 0.43 0.21 0.05 0.23 0.31 0.22 0.25 0.62 0.75 0.56 0.55 0.70 0.67 0.69 0.17 0.22 0.43 0.24 0.23 0.36 0.60 0.88 1.28 1.73 1.59 1.71 2.27 2.34 2.34 2.25 2.29 2.60 2.92 3.03 3.16 3.37 3.25 3.21
0.80 0.95 0.69 0.56 0.76 0.95 0.51 0.44 0.35 0.30 0.14 0.17 0.26 0.56 1.05 0.79 0.77 0.57 0.45 0.39 0.39 0.23 0.62 0.51 0.31 0.41 0.46 0.65 0.90 1.14 1.34 1.32 1.93 2.51 3.02 3.38 3.58 3.51 3.14 3.12 3.89 3.67 3.30 3.29
0.77 0.63 0.64 0.74 0.91 0.92 0.58 0.44 0.16 0.07 0.13 0.18 0.30 0.43 0.64 0.63 0.52 0.48 0.40 0.23 0.19 0.21 0.67 0.73 0.39 0.45 0.68 0.74 0.72 0.70 0.84 1.12 1.32 1.58 2.02 2.19 2.86 3.23 3.11 3.32 3.46 3.28 3.28 3.23
1.10 0.81 0.80 0.75 0.70 0.71 0.69 0.48 0.39 0.17 0.25 0.21 0.23 0.37 0.58 0.56 0.47 0.38 0.35 0.34 0.34 0.32 0.52 1.61 1.42 0.79 0.75 0.68 0.60 0.60 0.65 0.73 0.75 0.85 0.90 0.81 1.07 1.45 1.39 1.43 1.51 1.74 1.72 1.98
2.07 1.88 1.13 0.94 1.04 1.09 1.13 0.84 0.61 0.58 0.50 0.48 0.41 0.31 0.31 0.34 0.41 0.48 0.41 0.38 0.43 0.63 0.69 1.21 1.73 1.41 0.79 0.66 0.62 0.66 0.67 0.95 0.85 1.00 0.98 1.06 1.45 1.94 2.24 2.47 2.74 2.45 2.47 2.54
2.37 2.31 2.16 1.73 1.81 1.87 1.29 1.00 0.68 0.92 0.85 0.88 0.81 0.81 0.69 0.56 0.46 0.43 0.46 0.46 0.49 0.63 1.10 1.39 1.39 1.45 1.26 1.14 1.10 0.93 0.88 0.93 0.97 1.11 1.17 1.29 1.56 1.96 2.29 2.16 2.40 2.94 3.29 3.28

GFSCGP_prec_precacc_279.txt.gz
Total_Precipitation_Accumulation
0.00 0.00 0.00 0.01 0.01 0.03 0.19 0.42 1.22 1.90 2.20 3.36 3.13 2.60 1.55 1.26 0.98 1.29 0.87 0.21 0.07 0.11 0.06 0.02 0.07 0.10 0.05 0.04 0.07 0.13 0.28 0.42 0.64 0.67 0.71 0.83 0.63 0.83 0.97 1.03 0.94 1.01 0.90 1.17
0.00 0.00 0.00 0.00 0.00 0.02 0.03 0.37 0.95 1.23 1.44 2.32 3.70 2.83 2.37 1.55 0.97 0.93 1.21 0.68 0.25 0.20 0.16 0.04 0.05 0.05 0.04 0.03 0.03 0.15 0.31 0.40 0.34 0.22 0.16 0.53 0.85 1.39 1.78 1.10 1.11 1.27 0.70 0.77
0.00 0.00 0.00 0.00 0.02 0.00 0.06 0.30 0.66 0.90 0.63 1.26 2.99 4.09 3.24 2.19 1.53 1.34 0.75 0.56 0.44 0.19 0.19 0.21 0.12 0.05 0.04 0.01 0.01 0.02 0.14 0.25 0.29 0.27 0.30 0.92 1.67 2.47 2.17 2.04 0.96 0.73 0.88 0.62
0.00 0.00 0.00 0.00 0.00 0.01 0.13 0.20 0.62 1.37 0.80 0.93 0.66 2.61 3.90 2.40 2.05 1.74 0.76 0.50 0.32 0.30 0.37 0.43 0.24 0.10 0.03 0.03 0.05 0.04 0.14 0.24 0.20 0.34 0.28 0.75 1.42 1.61 1.16 0.78 0.57 0.71 1.01 0.98
0.00 0.00 0.01 0.00 0.02 0.04 0.06 0.18 0.56 0.67 0.63 0.28 0.25 0.78 1.83 2.08 1.98 2.07 0.88 0.42 0.49 0.72 0.28 0.20 0.14 0.16 0.20 0.15 0.39 0.34 0.22 0.32 0.31 0.41 0.80 0.70 0.84 0.91 1.10 0.88 1.28 1.36 1.25 1.50
0.00 0.00 0.00 0.00 0.03 0.04 0.06 0.08 0.32 0.59 0.46 0.35 0.15 0.29 1.03 1.49 1.01 1.39 0.88 0.43 0.29 0.47 0.29 0.30 0.41 0.30 0.30 0.55 0.88 0.40 0.27 0.26 0.44 0.52 0.60 0.91 1.56 2.03 1.83 2.40 1.65 1.05 1.04 1.96
0.00 0.00 0.00 0.00 0.01 0.02 0.03 0.06 0.34 0.42 0.36 0.44 0.21 0.26 0.54 0.89 0.62 0.60 1.13 0.75 0.59 0.55 0.78 0.40 0.46 0.26 0.22 0.24 0.50 0.24 0.28 0.28 0.27 0.41 0.46 0.77 2.08 3.35 2.70 2.26 1.31 1.29 1.21 1.45
0.00 0.00 0.00 0.00 0.00 0.01 0.01 0.01 0.13 0.31 0.39 0.55 0.34 0.69 0.37 0.25 0.29 0.44 0.60 0.80 1.31 1.02 0.86 0.98 0.72 0.47 0.22 0.17 0.19 0.10 0.30 0.29 0.31 0.51 0.75 1.96 5.18 4.01 2.35 2.19 1.81 0.99 1.13 1.26
0.00 0.00 0.00 0.00 0.00 0.00 0.00 0.01 0.04 0.13 0.18 0.36 0.38 0.71 0.46 0.19 0.22 0.21 0.50 0.92 1.18 1.14 1.02 2.61 1.37 0.91 0.57 0.15 0.11 0.23 0.57 0.43 0.49 0.72 1.75 3.07 3.51 3.58 3.58 3.25 2.52 1.37 1.37 1.30
0.00 0.00 0.00 0.00 0.00 0.01 0.00 0.01 0.03 0.07 0.23 0.24 0.57 1.07 1.17 0.53 1.13 0.58 0.41 0.61 0.67 1.16 1.24 1.29 1.22 1.04 0.82 0.47 0.35 0.38 0.59 0.63 0.93 1.41 2.19 2.15 2.66 2.36 2.28 2.32 1.85 1.42 2.05 2.58
0.01 0.00 0.01 0.00 0.02 0.03 0.01 0.00 0.01 0.01 0.11 0.31 0.58 0.94 1.09 0.88 1.48 1.34 0.79 0.48 0.53 0.59 1.05 1.72 2.33 2.69 2.05 1.67 1.44 1.04 1.36 2.04 2.59 2.70 2.81 3.24 2.95 2.02 1.65 1.53 1.30 1.23 1.72 2.04
0.02 0.01 0.01 0.01 0.03 0.09 0.12 0.07 0.06 0.02 0.16 0.21 0.30 0.71 0.81 0.93 0.98 1.20 1.84 1.10 0.88 0.70 0.95 1.17 1.72 3.07 4.51 3.07 3.66 4.78 4.07 4.04 4.32 3.85 3.39 3.44 2.57 2.28 1.51 0.97 1.07 1.71 1.69 1.63
0.09 0.06 0.06 0.09 0.08 0.03 0.00 0.02 0.17 0.14 0.14 0.07 0.12 0.24 0.47 0.65 1.20 1.47 2.07 1.93 1.37 1.78 2.54 1.44 1.30 1.67 3.06 3.07 3.12 6.18 7.90 7.37 5.90 4.16 3.70 2.64 2.74 1.73 1.42 1.10 0.83 0.93 1.34 1.64
0.21 0.06 0.02 0.19 0.23 0.09 0.02 0.02 0.01 0.06 0.09 0.03 0.06 0.15 0.48 0.75 1.49 0.80 1.40 2.44 2.00 1.97 1.98 2.61 2.71 2.95 3.68 4.57 4.87 5.43 5.15 4.93 5.26 3.84 3.87 2.91 2.83 2.63 1.96 1.74 1.49 1.19 1.17 0.96
0.12 0.02 0.00 0.03 0.01 0.01 0.04 0.04 0.03 0.01 0.01 0.06 0.37 0.15 0.71 0.47 0.39 0.77 0.62 0.58 0.65 0.87 1.02 1.14 1.56 1.63 2.77 3.77 3.25 4.28 4.52 4.02 3.34 3.84 4.88 4.70 3.79 3.22 3.07 3.31 2.82 2.06 1.64 1.07
0.11 0.04 0.00 0.00 0.01 0.00 0.01 0.01 0.01 0.05 0.13 0.07 0.26 0.50 0.32 0.51 0.56 0.49 0.91 1.35 1.41 1.10 0.90 1.02 1.47 1.49 1.60 1.93 2.07 2.93 4.39 5.01 3.63 2.75 2.84 3.72 4.61 5.07 4.19 4.01 3.73 4.09 3.24 2.34
0.17 0.16 0.15 0.06 0.06 0.02 0.06 0.01 0.01 0.01 0.04 0.05 0.13 0.64 0.61 0.63 0.70 0.84 0.65 1.02 1.80 1.67 1.35 1.11 1.12 1.50 1.40 1.32 1.19 1.23 1.84 2.99 3.77 4.01 3.34 3.25 3.68 5.13 5.42 4.29 4.23 4.38 4.28 4.33
0.14 0.22 0.23 0.15 0.14 0.19 0.07 0.06 0.04 0.07 0.08 0.20 0.35 0.30 0.48 0.51 0.23 0.34 0.47 0.62 1.03 1.63 1.73 1.54 1.24 1.28 1.20 1.50 1.69 1.28 1.21 1.35 1.93 2.79 3.54 3.92 3.59 4.40 5.19 4.33 3.68 3.72 4.22 4.64
0.07 0.22 0.25 0.17 0.32 0.25 0.11 0.08 0.04 0.06 0.16 0.21 0.23 0.37 1.04 0.81 0.44 0.34 0.43 0.38 0.43 0.86 0.78 1.05 1.47 1.38 1.71 1.63 1.87 2.10 1.97 1.51 1.76 1.93 2.50 3.61 4.84 4.91 5.04 5.34 4.68 4.34 4.28 3.98
0.14 0.27 0.37 0.25 0.62 0.79 0.60 0.21 0.03 0.03 0.27 0.39 0.29 0.36 0.99 0.65 0.72 0.54 0.39 0.28 0.26 0.55 0.38 0.33 0.46 0.83 1.25 1.97 2.13 2.31 2.64 2.12 1.72 1.84 1.99 2.08 2.46 3.15 3.62 4.33 4.73 4.75 5.00 4.67
0.54 0.52 0.44 0.38 0.71 0.71 0.43 0.21 0.05 0.23 0.31 0.22 0.25 0.62 0.75 0.56 0.55 0.70 0.67 0.69 0.17 0.22 0.43 0.24 0.23 0.36 0.60 0.88 1.28 1.73 1.60 1.71 2.27 2.34 2.34 2.25 2.29 2.60 2.92 3.03 3.16 3.37 3.25 3.21
0.81 0.95 0.69 0.56 0.76 0.95 0.51 0.44 0.35 0.30 0.14 0.17 0.26 0.56 1.05 0.79 0.77 0.57 0.45 0.39 0.39 0.23 0.62 0.51 0.31 0.41 0.46 0.65 0.90 1.15 1.34 1.32 1.93 2.51 3.02 3.38 3.58 3.51 3.14 3.12 3.89 3.67 3.30 3.29
0.80 0.73 0.68 0.74 0.92 0.95 0.61 0.45 0.16 0.07 0.13 0.18 0.30 0.43 0.64 0.63 0.52 0.48 0.40 0.23 0.19 0.21 0.67 0.73 0.39 0.46 0.68 0.74 0.72 0.70 0.84 1.12 1.32 1.58 2.02 2.19 2.86 3.23 3.11 3.32 3.46 3.28 3.28 3.23
1.12 0.84 0.80 0.75 0.70 0.74 0.71 0.48 0.39 0.17 0.25 0.21 0.23 0.37 0.58 0.56 0.47 0.38 0.35 0.34 0.34 0.32 0.52 1.61 1.43 0.81 0.80 0.70 0.63 0.66 0.74 0.80 0.78 0.86 0.90 0.81 1.07 1.45 1.39 1.43 1.51 1.74 1.72 1.98
2.07 1.96 1.16 0.94 1.04 1.09 1.13 0.84 0.61 0.58 0.50 0.48 0.41 0.31 0.31 0.34 0.41 0.48 0.41 0.38 0.43 0.63 0.70 1.28 1.86 1.56 0.97 0.86 0.97 1.00 0.92 1.10 0.92 1.02 0.98 1.06 1.45 1.94 2.24 2.47 2.74 2.45 2.47 2.54
2.37 2.31 2.16 1.73 1.81 1.87 1.29 1.00 0.68 0.92 0.85 0.88 0.81 0.81 0.69 0.56 0.46 0.43 0.46 0.46 0.49 0.65 1.17 1.62 2.04 2.23 2.03 1.82 1.70 1.43 1.19 1.07 1.03 1.12 1.17 1.29 1.56 1.96 2.29 2.16 2.40 2.94 3.29 3.28

GFSCGP_prec_precacc_282.txt.gz
Total_Precipitation_Accumulation
0.00 0.00 0.00 0.01 0.01 0.03 0.19 0.42 1.22 1.91 2.20 3.36 3.13 2.60 1.55 1.26 0.98 1.29 0.87 0.21 0.07 0.11 0.06 0.02 0.07 0.10 0.05 0.04 0.07 0.13 0.28 0.42 0.64 0.67 0.71 0.83 0.63 0.83 0.97 1.03 0.95 1.05 0.91 1.18
0.00 0.00 0.00 0.00 0.00 0.02 0.03 0.37 0.96 1.25 1.44 2.32 3.71 2.83 2.38 1.55 0.97 0.93 1.21 0.68 0.25 0.20 0.16 0.04 0.05 0.05 0.04 0.03 0.03 0.15 0.31 0.40 0.34 0.22 0.16 0.53 0.85 1.39 1.79 1.11 1.12 1.30 0.71 0.78
0.00 0.00 0.00 0.00 0.02 0.00 0.06 0.30 0.67 0.90 0.63 1.26 3.00 4.10 3.27 2.21 1.55 1.34 0.75 0.56 0.44 0.19 0.19 0.21 0.12 0.05 0.04 0.01 0.01 0.02 0.14 0.25 0.29 0.27 0.30 0.92 1.67 2.47 2.18 2.05 0.96 0.74 0.88 0.64
0.00 0.00 0.00 0.00 0.00 0.01 0.13 0.20 0.62 1.37 0.80 0.96 0.68 2.76 4.22 2.49 2.10 1.75 0.76 0.50 0.32 0.30 0.37 0.43 0.24 0.10 0.03 0.03 0.05 0.04 0.14 0.24 0.20 0.34 0.28 0.75 1.42 1.61 1.17 0.79 0.62 0.75 1.03 1.05
0.00 0.00 0.01 0.00 0.02 0.04 0.06 0.18 0.56 0.67 0.63 0.28 0.36 0.87 1.89 2.17 2.09 2.08 0.88 0.42 0.49 0.72 0.28 0.20 0.14 0.16 0.20 0.15 0.39 0.34 0.22 0.32 0.31 0.41 0.80 0.70 0.84 0.91 1.10 0.88 1.29 1.36 1.26 1.63
0.00 0.00 0.00 0.00 0.03 0.04 0.06 0.08 0.32 0.59 0.46 0.38 0.19 0.30 1.05 1.68 1.06 1.40 0.88 0.43 0.29 0.47 0.29 0.30 0.41 0.30 0.30 0.55 0.88 0.40 0.27 0.26 0.44 0.52 0.60 0.91 1.56 2.03 1.83 2.40 1.65 1.05 1.05 2.07
0.00 0.00 0.00 0.00 0.01 0.02 0.03 0.06 0.34 0.42 0.38 0.53 0.27 0.26 0.55 0.90 0.63 0.60 1.13 0.75 0.59 0.55 0.78 0.40 0.46 0.26 0.22 0.24 0.50 0.24 0.28 0.28 0.27 0.41 0.46 0.77 2.08 3.35 2.71 2.26 1.31 1.29 1.21 1.46
0.00 0.00 0.00 0.00 0.00 0.01 0.01 0.01 0.13 0.31 0.40 0.60 0.36 0.72 0.41 0.25 0.29 0.44 0.60 0.80 1.31 1.02 0.86 0.98 0.72 0.47 0.22 0.17 0.19 0.10 0.30 0.29 0.31 0.51 0.75 1.96 5.18 4.01 2.35 2.19 1.81 0.99 1.13 1.27
0.00 0.00 0.00 0.00 0.00 0.00 0.00 0.01 0.04 0.13 0.18 0.36 0.42 0.75 0.47 0.19 0.25 0.25 0.50 0.92 1.18 1.14 1.02 2.61 1.37 0.91 0.57 0.15 0.11 0.23 0.57 0.43 0.49 0.72 1.75 3.07 3.52 3.58 3.58 3.25 2.52 1.37 1.38 1.32
0.00 0.00 0.00 0.00 0.00 0.01 0.00 0.01 0.03 0.07 0.23 0.24 0.58 1.10 1.22 0.54 1.14 0.62 0.41 0.61 0.67 1.16 1.24 1.29 1.22 1.04 0.82 0.47 0.35 0.38 0.59 0.63 0.93 1.41 2.19 2.15 2.66 2.36 2.28 2.32 1.85 1.43 2.08 2.60
0.01 0.00 0.01 0.00 0.02 0.03 0.01 0.00 0.01 0.01 0.11 0.32 0.58 0.94 1.09 0.90 1.48 1.34 0.79 0.48 0.53 0.59 1.05 1.72 2.33 2.69 2.05 1.67 1.44 1.04 1.36 2.04 2.59 2.70 2.81 3.24 2.95 2.02 1.65 1.53 1.31 1.23 1.72 2.04
0.02 0.01 0.01 0.01 0.03 0.09 0.12 0.07 0.06 0.02 0.16 0.21 0.30 0.71 0.81 0.93 0.98 1.20 1.84 1.10 0.88 0.70 0.95 1.17 1.72 3.07 4.51 3.07 3.66 4.78 4.07 4.04 4.32 3.85 3.39 3.44 2.57 2.28 1.52 0.98 1.07 1.72 1.70 1.63
0.09 0.06 0.06 0.09 0.08 0.03 0.00 0.02 0.17 0.14 0.14 0.07 0.13 0.27 0.47 0.65 1.20 1.47 2.07 1.93 1.37 1.78 2.54 1.44 1.30 1.67 3.06 3.07 3.12 6.18 7.90 7.37 5.90 4.16 3.70 2.64 2.74 1.73 1.42 1.10 0.83 0.93 1.34 1.64
0.21 0.06 0.02 0.19 0.23 0.09 0.02 0.02 0.01 0.06 0.09 0.03 0.06 0.15 0.48 0.75 1.49 0.80 1.40 2.44 2.00 1.97 1.98 2.61 2.71 2.95 3.68 4.57 4.87 5.43 5.15 4.93 5.26 3.84 3.87 2.91 2.83 2.63 1.96 1.74 1.49 1.19 1.17 0.96
0.12 0.02 0.00 0.03 0.01 0.01 0.04 0.04 0.03 0.01 0.01 0.06 0.37 0.15 0.71 0.47 0.39 0.77 0.62 0.58 0.65 0.87 1.02 1.14 1.56 1.63 2.77 3.77 3.25 4.28 4.52 4.02 3.34 3.84 4.88 4.70 3.79 3.22 3.07 3.31 2.82 2.06 1.64 1.07
0.11 0.04 0.00 0.00 0.01 0.00 0.01 0.01 0.01 0.05 0.13 0.07 0.26 0.50 0.32 0.51 0.56 0.49 0.91 1.35 1.41 1.10 0.90 1.02 1.47 1.49 1.60 1.93 2.07 2.93 4.39 5.01 3.63 2.75 2.84 3.72 4.61 5.07 4.19 4.01 3.73 4.09 3.24 2.34
0.17 0.16 0.15 0.06 0.06 0.02 0.06 0.01 0.01 0.01 0.04 0.05 0.13 0.64 0.61 0.63 0.70 0.84 0.65 1.02 1.80 1.67 1.35 1.11 1.12 1.50 1.40 1.32 1.19 1.23 1.84 2.99 3.77 4.01 3.34 3.25 3.68 5.13 5.42 4.29 4.23 4.38 4.28 4.33
0.16 0.22 0.23 0.15 0.14 0.19 0.07 0.06 0.04 0.07 0.08 0.20 0.35 0.30 0.48 0.51 0.23 0.34 0.47 0.62 1.03 1.63 1.73 1.54 1.24 1.28 1.20 1.50 1.69 1.28 1.21 1.35 1.93 2.79 3.54 3.92 3.59 4.40 5.19 4.33 3.68 3.72 4.22 4.64
0.08 0.23 0.25 0.17 0.32 0.25 0.11 0.08 0.04 0.06 0.16 0.21 0.23 0.37 1.04 0.81 0.44 0.34 0.43 0.38 0.43 0.86 0.78 1.05 1.47 1.38 1.71 1.63 1.87 2.10 1.97 1.51 1.76 1.93 2.50 3.61 4.84 4.91 5.04 5.34 4.68 4.34 4.28 3.98
0.14 0.27 0.37 0.25 0.62 0.79 0.60 0.21 0.03 0.03 0.27 0.39 0.29 0.36 0.99 0.65 0.72 0.54 0.39 0.28 0.26 0.55 0.38 0.33 0.46 0.83 1.25 1.97 2.13 2.31 2.64 2.12 1.72 1.84 1.99 2.08 2.46 3.15 3.62 4.33 4.73 4.75 5.00 4.67
0.54 0.52 0.44 0.38 0.72 0.71 0.43 0.21 0.05 0.23 0.32 0.22 0.25 0.62 0.75 0.56 0.55 0.70 0.67 0.69 0.17 0.22 0.43 0.24 0.23 0.36 0.60 0.90 1.28 1.73 1.60 1.71 2.27 2.34 2.34 2.25 2.29 2.60 2.92 3.03 3.16 3.37 3.25 3.21
0.84 0.96 0.69 0.56 0.76 0.95 0.53 0.44 0.36 0.33 0.15 0.18 0.26 0.56 1.05 0.79 0.77 0.57 0.45 0.39 0.39 0.23 0.62 0.51 0.31 0.41 0.47 0.68 0.90 1.15 1.34 1.32 1.93 2.51 3.02 3.38 3.58 3.51 3.14 3.12 3.89 3.67 3.30 3.29
0.91 0.76 0.71 0.78 0.95 0.97 0.61 0.49 0.28 0.24 0.32 0.28 0.31 0.43 0.64 0.63 0.52 0.48 0.40 0.23 0.19 0.21 0.67 0.73 0.39 0.47 0.71 0.76 0.72 0.70 0.85 1.12 1.32 1.58 2.02 2.19 2.86 3.23 3.11 3.32 3.46 3.28 3.28 3.23
1.19 0.92 0.82 0.79 0.79 0.78 0.76 0.50 0.40 0.21 0.31 0.25 0.24 0.37 0.58 0.56 0.47 0.38 0.35 0.34 0.34 0.32 0.52 1.61 1.44 0.83 0.85 0.73 0.65 0.67 0.74 0.80 0.79 0.86 0.91 0.82 1.07 1.45 1.39 1.43 1.51 1.74 1.72 1.98
2.35 2.40 1.51 1.00 1.06 1.18 1.18 0.92 0.61 0.58 0.50 0.48 0.41 0.31 0.31 0.34 0.41 0.48 0.41 0.38 0.43 0.63 0.70 1.28 1.87 1.60 1.10 1.08 1.24 1.20 1.06 1.16 0.94 1.04 1.01 1.09 1.47 1.95 2.24 2.47 2.74 2.45 2.47 2.54
2.42 2.68 2.42 1.82 1.82 1.91 1.31 1.06 0.80 0.93 0.85 0.88 0.81 0.81 0.69 0.56 0.46 0.43 0.46 0.46 0.49 0.65 1.17 1.62 2.10 2.57 2.60 2.42 2.37 2.26 1.81 1.29 1.11 1.16 1.19 1.30 1.56 1.96 2.29 2.16 2.40 2.94 3.29 3.28

GFSCGP_prec_precacc_285.txt.gz
Total_Precipitation_Accumulation
0.00 0.00 0.00 0.01 0.01 0.03 0.19 0.43 1.23 1.91 2.20 3.36 3.16 2.66 1.70 1.32 1.04 1.33 0.88 0.21 0.07 0.11 0.06 0.02 0.07 0.10 0.05 0.04 0.07 0.13 0.28 0.42 0.64 0.67 0.71 0.83 0.65 0.84 0.97 1.03 0.95 1.05 0.95 1.25
0.00 0.00 0.00 0.00 0.00 0.02 0.03 0.37 0.96 1.26 1.45 2.33 3.71 2.92 2.60 1.81 1.08 0.99 1.25 0.69 0.25 0.20 0.16 0.04 0.05 0.05 0.04 0.03 0.03 0.15 0.31 0.40 0.34 0.22 0.16 0.53 0.86 1.40 1.81 1.11 1.12 1.31 0.76 0.99
0.00 0.00 0.00 0.00 0.02 0.00 0.06 0.30 0.68 0.91 0.64 1.27 3.01 4.13 3.31 2.33 1.66 1.38 0.78 0.58 0.44 0.19 0.19 0.21 0.12 0.05 0.04 0.01 0.01 0.02 0.14 0.25 0.29 0.27 0.30 0.92 1.67 2.48 2.19 2.07 0.97 0.74 0.91 0.78
0.00 0.00 0.00 0.00 0.00 0.01 0.13 0.20 0.62 1.37 0.81 0.97 0.70 2.81 4.25 2.50 2.11 1.79 0.78 0.54 0.34 0.31 0.37 0.43 0.24 0.10 0.03 0.03 0.05 0.04 0.14 0.24 0.20 0.34 0.28 0.75 1.45 1.66 1.17 0.81 0.68 0.76 1.04 1.10
0.00 0.00 0.01 0.00 0.02 0.04 0.06 0.18 0.56 0.67 0.63 0.29 0.37 0.90 1.93 2.18 2.12 2.10 0.88 0.43 0.50 0.73 0.29 0.20 0.15 0.16 0.20 0.15 0.39 0.34 0.22 0.32 0.31 0.41 0.80 0.70 0.87 0.93 1.12 0.95 1.35 1.38 1.27 1.63
0.00 0.00 0.00 0.00 0.03 0.04 0.06 0.08 0.32 0.59 0.46 0.46 0.27 0.31 1.05 1.68 1.07 1.43 0.90 0.44 0.31 0.48 0.29 0.31 0.43 0.31 0.31 0.55 0.88 0.40 0.27 0.26 0.44 0.52 0.60 0.91 1.60 2.09 1.96 2.45 1.69 1.06 1.05 2.07
0.00 0.00 0.00 0.00 0.01 0.02 0.03 0.06 0.34 0.42 0.46 0.74 0.29 0.26 0.56 0.90 0.63 0.64 1.18 0.83 0.64 0.56 0.78 0.41 0.48 0.28 0.25 0.25 0.50 0.24 0.28 0.28 0.27 0.41 0.46 0.77 2.08 3.42 2.81 2.32 1.32 1.29 1.21 1.46
0.00 0.00 0.00 0.00 0.00 0.01 0.01 0.01 0.13 0.31 0.40 0.60 0.36 0.73 0.42 0.25 0.29 0.49 0.63 0.82 1.33 1.04 0.86 0.99 0.73 0.47 0.23 0.18 0.20 0.10 0.30 0.29 0.31 0.51 0.75 1.96 5.18 4.04 2.37 2.19 1.81 0.99 1.13 1.27
0.00 0.00 0.00 0.00 0.00 0.00 0.00 0.01 0.04 0.13 0.18 0.37 0.43 0.76 0.47 0.21 0.26 0.26 0.51 0.92 1.18 1.14 1.02 2.61 1.38 0.91 0.57 0.15 0.11 0.23 0.57 0.43 0.49 0.72 1.75 3.07 3.52 3.59 3.58 3.25 2.52 1.37 1.38 1.34
0.00 0.00 0.00 0.00 0.00 0.01 0.00 0.01 0.03 0.07 0.23 0.24 0.58 1.10 1.22 0.55 1.14 0.66 0.43 0.61 0.67 1.16 1.24 1.29 1.22 1.04 0.82 0.47 0.35 0.38 0.59 0.63 0.93 1.41 2.19 2.15 2.66 2.36 2.28 2.32 1.85 1.43 2.08 2.60
0.01 0.00 0.01 0.00 0.02 0.03 0.01 0.00 0.01 0.01 0.11 0.32 0.58 0.94 1.09 0.90 1.48 1.35 0.80 0.48 0.53 0.59 1.05 1.72 2.33 2.69 2.05 1.67 1.44 1.04 1.36 2.04 2.59 2.70 2.81 3.24 2.95 2.02 1.65 1.53 1.31 1.23 1.72 2.04
0.02 0.01 0.01 0.01 0.03 0.09 0.12 0.07 0.06 0.02 0.16 0.21 0.30 0.71 0.81 0.93 0.98 1.22 1.86 1.10 0.88 0.70 0.95 1.17 1.72 3.07 4.51 3.07 3.66 4.78 4.07 4.04 4.32 3.85 3.39 3.44 2.57 2.28 1.52 0.98 1.07 1.72 1.70 1.63
0.09 0.06 0.06 0.09 0.08 0.03 0.00 0.02 0.17 0.14 0.14 0.07 0.13 0.27 0.47 0.66 1.21 1.47 2.08 1.93 1.37 1.78 2.54 1.44 1.30 1.67 3.06 3.07 3.12 6.18 7.90 7.37 5.90 4.16 3.70 2.64 2.74 1.73 1.42 1.10 0.83 0.93 1.34 1.64
0.21 0.06 0.02 0.19 0.23 0.09 0.02 0.02 0.01 0.06 0.09 0.03 0.06 0.15 0.50 0.76 1.50 0.81 1.40 2.44 2.00 1.97 1.98 2.61 2.71 2.95 3.68 4.57 4.87 5.43 5.15 4.93 5.26 3.84 3.87 2.91 2.83 2.63 1.96 1.74 1.49 1.19 1.17 0.96
0.12 0.02 0.00 0.03 0.01 0.01 0.04 0.04 0.03 0.01 0.01 0.06 0.37 0.15 0.71 0.48 0.40 0.77 0.62 0.58 0.65 0.87 1.02 1.14 1.56 1.63 2.77 3.77 3.25 4.28 4.52 4.02 3.34 3.84 4.88 4.70 3.79 3.22 3.07 3.31 2.82 2.06 1.64 1.07
0.11 0.04 0.00 0.00 0.01 0.00 0.01 0.01 0.01 0.05 0.13 0.07 0.26 0.50 0.32 0.51 0.56 0.49 0.91 1.35 1.41 1.10 0.90 1.02 1.47 1.49 1.60 1.93 2.07 2.93 4.39 5.01 3.63 2.75 2.84 3.72 4.61 5.07 4.19 4.01 3.73 4.09 3.24 2.34
0.17 0.16 0.15 0.06 0.06 0.02 0.06 0.01 0.01 0.01 0.04 0.05 0.13 0.64 0.61 0.63 0.70 0.84 0.65 1.02 1.80 1.67 1.35 1.11 1.12 1.50 1.40 1.32 1.19 1.23 1.84 2.99 3.77 4.01 3.34 3.25 3.68 5.13 5.42 4.29 4.23 4.38 4.28 4.33
0.16 0.22 0.23 0.15 0.14 0.19 0.07 0.06 0.04 0.07 0.08 0.20 0.35 0.30 0.48 0.51 0.23 0.34 0.47 0.62 1.03 1.63 1.73 1.54 1.24 1.28 1.20 1.50 1.69 1.28 1.21 1.35 1.93 2.79 3.54 3.92 3.59 4.40 5.19 4.33 3.68 3.72 4.22 4.64
0.08 0.24 0.25 0.17 0.32 0.25 0.11 0.08 0.04 0.06 0.16 0.21 0.23 0.37 1.04 0.81 0.44 0.34 0.43 0.38 0.43 0.86 0.78 1.05 1.47 1.38 1.71 1.63 1.87 2.10 1.97 1.51 1.76 1.93 2.50 3.61 4.84 4.91 5.04 5.34 4.68 4.34 4.28 3.98
0.14 0.28 0.39 0.26 0.62 0.79 0.60 0.21 0.03 0.03 0.27 0.39 0.29 0.36 0.99 0.65 0.72 0.54 0.39 0.28 0.26 0.55 0.38 0.33 0.46 0.83 1.25 1.98 2.14 2.32 2.64 2.12 1.72 1.84 1.99 2.08 2.46 3.15 3.62 4.33 4.73 4.75 5.00 4.67
0.54 0.52 0.44 0.42 0.76 0.72 0.43 0.21 0.05 0.23 0.32 0.23 0.25 0.62 0.75 0.56 0.55 0.70 0.67 0.69 0.17 0.22 0.43 0.24 0.23 0.36 0.60 0.92 1.33 1.80 1.60 1.71 2.27 2.34 2.34 2.25 2.29 2.60 2.92 3.03 3.16 3.37 3.25 3.21
0.84 0.96 0.70 0.60 0.92 0.99 0.54 0.44 0.36 0.36 0.27 0.32 0.31 0.56 1.05 0.79 0.77 0.57 0.45 0.39 0.39 0.23 0.62 0.51 0.31 0.41 0.48 0.72 0.95 1.20 1.36 1.32 1.93 2.51 3.02 3.38 3.58 3.51 3.14 3.12 3.89 3.67 3.30 3.29
0.91 0.76 0.71 0.78 0.98 0.99 0.63 0.50 0.28 0.28 0.47 0.52 0.43 0.45 0.65 0.64 0.52 0.48 0.40 0.23 0.19 0.21 0.67 0.73 0.39 0.47 0.77 0.83 0.85 0.76 0.88 1.12 1.32 1.58 2.02 2.19 2.86 3.23 3.11 3.32 3.46 3.28 3.28 3.23
1.19 0.92 0.82 0.80 0.79 0.79 0.77 0.51 0.40 0.21 0.32 0.27 0.26 0.37 0.58 0.56 0.47 0.38 0.35 0.34 0.34 0.32 0.52 1.61 1.44 0.97 1.25 1.10 0.91 0.87 0.83 0.81 0.79 0.88 0.92 0.82 1.07 1.45 1.39 1.43 1.51 1.74 1.72 1.98
2.36 2.40 1.52 1.02 1.06 1.18 1.19 0.93 0.61 0.59 0.51 0.50 0.43 0.31 0.31 0.34 0.41 0.48 0.41 0.38 0.43 0.63 0.70 1.28 1.92 1.88 1.42 1.69 1.69 1.73 1.62 1.69 1.20 1.14 1.05 1.10 1.47 1.95 2.24 2.47 2.74 2.45 2.47 2.54
2.42 2.70 2.49 1.89 1.84 1.91 1.32 1.09 0.88 0.97 0.86 0.88 0.81 0.81 0.69 0.56 0.46 0.43 0.46 0.46 0.49 0.65 1.20 1.69 2.26 2.73 2.86 2.69 2.65 2.76 2.90 2.44 1.86 1.37 1.25 1.33 1.56 1.96 2.29 2.16 2.40 2.94 3.29 3.28

GFSCGP_prec_precacc_288.txt.gz
Total_Precipitation_Accumulation
0.00 0.00 0.00 0.01 0.01 0.03 0.19 0.43 1.23 1.92 2.24 3.41 3.20 2.71 1.76 1.45 1.10 1.35 0.89 0.21 0.07 0.11 0.06 0.02 0.07 0.10 0.05 0.04 0.07 0.13 0.28 0.42 0.64 0.67 0.71 0.83 0.66 0.84 0.97 1.06 0.97 1.13 1.06 1.42
0.00 0.00 0.00 0.00 0.00 0.02 0.03 0.37 0.97 1.27 1.48 2.35 3.78 2.98 2.62 1.93 1.13 1.02 1.27 0.69 0.26 0.20 0.16 0.04 0.05 0.05 0.04 0.03 0.03 0.15 0.31 0.40 0.34 0.22 0.16 0.53 0.87 1.41 1.82 1.16 1.15 1.32 0.82 1.17
0.00 0.00 0.00 0.00 0.02 0.00 0.06 0.30 0.68 0.92 0.65 1.28 3.04 4.17 3.32 2.33 1.66 1.40 0.82 0.61 0.47 0.20 0.20 0.21 0.12 0.05 0.04 0.01 0.01 0.02 0.14 0.25 0.29 0.27 0.30 0.92 1.70 2.50 2.23 2.12 0.99 0.77 0.97 0.90
0.00 0.00 0.00 0.00 0.00 0.01 0.13 0.20 0.62 1.37 0.81 0.97 0.70 2.82 4.26 2.50 2.11 1.81 0.81 0.58 0.39 0.32 0.39 0.44 0.24 0.10 0.03 0.03 0.05 0.04 0.14 0.24 0.20 0.34 0.28 0.75 1.49 1.71 1.22 0.85 0.72 0.79 1.05 1.10
0.00 0.00 0.01 0.00 0.02 0.04 0.06 0.18 0.56 0.67 0.63 0.29 0.37 0.90 1.93 2.18 2.12 2.10 0.92 0.47 0.55 0.77 0.31 0.21 0.15 0.17 0.21 0.15 0.39 0.34 0.22 0.32 0.31 0.41 0.80 0.70 0.90 1.00 1.14 1.09 1.43 1.43 1.27 1.63
0.00 0.00 0.00 0.00 0.03 0.04 0.06 0.08 0.32 0.59 0.46 0.46 0.27 0.31 1.05 1.68 1.07 1.43 0.93 0.49 0.36 0.55 0.34 0.34 0.45 0.32 0.31 0.55 0.88 0.40 0.27 0.26 0.44 0.52 0.60 0.91 1.60 2.14 2.06 2.54 1.72 1.06 1.05 2.07
0.00 0.00 0.00 0.00 0.01 0.02 0.03 0.06 0.34 0.42 0.46 0.74 0.29 0.26 0.56 0.90 0.63 0.64 1.18 0.88 0.68 0.64 0.85 0.45 0.51 0.29 0.25 0.25 0.50 0.24 0.28 0.28 0.27 0.41 0.46 0.77 2.08 3.49 2.87 2.39 1.32 1.29 1.21 1.46
0.00 0.00 0.00 0.00 0.00 0.01 0.01 0.01 0.13 0.31 0.40 0.60 0.36 0.73 0.42 0.25 0.29 0.49 0.63 0.82 1.36 1.20 0.91 1.00 0.75 0.49 0.25 0.18 0.20 0.10 0.30 0.29 0.31 0.51 0.75 1.96 5.18 4.07 2.43 2.21 1.81 0.99 1.13 1.27
0.00 0.00 0.00 0.00 0.00 0.00 0.00 0.01 0.04 0.13 0.18 0.37 0.43 0.76 0.47 0.21 0.26 0.26 0.51 0.92 1.19 1.16 1.04 2.61 1.39 0.93 0.59 0.15 0.11 0.23 0.57 0.43 0.49 0.72 1.75 3.07 3.53 3.61 3.59 3.25 2.52 1.37 1.38 1.34
0.00 0.00 0.00 0.00 0.00 0.01 0.00 0.01 0.03 0.07 0.23 0.24 0.58 1.10 1.22 0.55 1.14 0.66 0.43 0.61 0.67 1.16 1.24 1.29 1.22 1.05 0.83 0.49 0.35 0.38 0.59 0.63 0.93 1.41 2.19 2.15 2.66 2.37 2.28 2.32 1.85 1.43 2.08 2.60
0.01 0.00 0.01 0.00 0.02 0.03 0.01 0.00 0.01 0.01 0.11 0.32 0.58 0.94 1.09 0.90 1.48 1.35 0.80 0.48 0.53 0.59 1.05 1.72 2.33 2.69 2.06 1.68 1.44 1.04 1.36 2.04 2.59 2.70 2.81 3.24 2.95 2.02 1.65 1.53 1.31 1.23 1.72 2.04
0.02 0.01 0.01 0.01 0.03 0.09 0.12 0.07 0.06 0.02 0.16 0.21 0.30 0.71 0.81 0.93 0.98 1.22 1.87 1.11 0.88 0.70 0.95 1.17 1.72 3.07 4.51 3.07 3.66 4.78 4.07 4.04 4.32 3.85 3.39 3.44 2.57 2.28 1.52 0.98 1.07 1.72 1.70 1.63
0.09 0.06 0.06 0.09 0.08 0.03 0.00 0.02 0.17 0.14 0.14 0.07 0.13 0.27 0.47 0.66 1.21 1.48 2.08 1.93 1.37 1.78 2.54 1.44 1.30 1.67 3.06 3.07 3.12 6.18 7.90 7.37 5.90 4.16 3.70 2.64 2.74 1.73 1.42 1.10 0.83 0.93 1.34 1.64
0.21 0.06 0.02 0.19 0.23 0.09 0.02 0.02 0.01 0.06 0.09 0.03 0.06 0.15 0.50 0.76 1.51 0.81 1.40 2.44 2.00 1.97 1.98 2.61 2.71 2.95 3.68 4.57 4.87 5.43 5.15 4.93 5.26 3.84 3.87 2.91 2.83 2.63 1.96 1.74 1.49 1.19 1.17 0.96
0.12 0.02 0.00 0.03 0.01 0.01 0.04 0.04 0.03 0.01 0.01 0.06 0.37 0.15 0.71 0.48 0.41 0.77 0.62 0.58 0.65 0.87 1.02 1.14 1.56 1.63 2.77 3.77 3.25 4.28 4.52 4.02 3.34 3.84 4.88 4.70 3.79 3.22 3.07 3.31 2.82 2.06 1.64 1.07
0.11 0.04 0.00 0.00 0.01 0.00 0.01 0.01 0.01 0.05 0.13 0.07 0.26 0.50 0.32 0.51 0.56 0.49 0.91 1.35 1.41 1.10 0.90 1.02 1.47 1.49 1.60 1.93 2.07 2.93 4.39 5.01 3.63 2.75 2.84 3.72 4.61 5.07 4.19 4.01 3.73 4.09 3.24 2.34
0.17 0.16 0.15 0.06 0.06 0.02 0.06 0.01 0.01 0.01 0.04 0.05 0.13 0.64 0.61 0.63 0.70 0.84 0.65 1.02 1.80 1.67 1.35 1.11 1.12 1.50 1.40 1.32 1.19 1.23 1.84 2.99 3.77 4.01 3.34 3.25 3.68 5.13 5.42 4.29 4.23 4.38 4.28 4.33
0.16 0.22 0.23 0.15 0.14 0.19 0.07 0.06 0.04 0.07 0.08 0.20 0.35 0.30 0.48 0.51 0.23 0.34 0.47 0.62 1.03 1.63 1.73 1.54 1.24 1.28 1.20 1.50 1.69 1.28 1.21 1.35 1.93 2.79 3.54 3.92 3.59 4.40 5.19 4.33 3.68 3.72 4.22 4.64
0.09 0.24 0.25 0.17 0.32 0.25 0.11 0.08 0.04 0.06 0.16 0.21 0.23 0.37 1.04 0.81 0.44 0.34 0.43 0.38 0.43 0.86 0.78 1.05 1.47 1.38 1.71 1.63 1.87 2.10 1.97 1.51 1.76 1.93 2.50 3.61 4.84 4.91 5.04 5.34 4.68 4.34 4.28 3.98
0.14 0.28 0.39 0.26 0.62 0.79 0.60 0.21 0.03 0.03 0.27 0.39 0.29 0.36 0.99 0.65 0.72 0.54 0.39 0.28 0.26 0.55 0.38 0.33 0.46 0.83 1.25 1.98 2.14 2.32 2.65 2.13 1.73 1.84 1.99 2.08 2.46 3.15 3.62 4.33 4.73 4.75 5.00 4.67
0.54 0.52 0.44 0.42 0.76 0.73 0.43 0.21 0.05 0.23 0.34 0.28 0.27 0.63 0.76 0.58 0.56 0.70 0.67 0.69 0.17 0.22 0.43 0.24 0.23 0.36 0.60 0.92 1.34 1.93 1.71 1.81 2.34 2.34 2.34 2.25 2.29 2.60 2.92 3.03 3.16 3.37 3.25 3.21
0.84 0.96 0.70 0.60 0.94 1.01 0.55 0.45 0.36 0.36 0.34 0.43 0.38 0.58 1.08 0.84 0.79 0.57 0.45 0.39 0.39 0.23 0.62 0.51 0.31 0.41 0.48 0.80 1.11 1.50 1.71 1.56 1.99 2.51 3.03 3.40 3.58 3.51 3.14 3.12 3.89 3.67 3.30 3.29
0.91 0.76 0.71 0.78 0.98 0.99 0.64 0.50 0.29 0.28 0.47 0.57 0.54 0.51 0.67 0.65 0.53 0.48 0.40 0.23 0.19 0.21 0.67 0.73 0.39 0.47 0.89 1.13 1.16 1.23 1.19 1.27 1.39 1.62 2.18 2.25 2.86 3.23 3.11 3.32 3.46 3.28 3.28 3.23
1.19 0.92 0.82 0.80 0.79 0.79 0.77 0.52 0.41 0.21 0.32 0.27 0.27 0.39 0.59 0.56 0.47 0.38 0.35 0.34 0.34 0.32 0.52 1.61 1.44 0.98 1.41 1.21 1.09 1.11 0.96 0.97 1.14 1.51 1.62 1.02 1.09 1.46 1.39 1.43 1.51 1.74 1.72 1.98
2.36 2.40 1.52 1.02 1.06 1.18 1.19 0.93 0.61 0.60 0.51 0.50 0.43 0.32 0.31 0.34 0.41 0.48 0.42 0.39 0.43 0.63 0.72 1.30 1.96 1.96 1.51 1.70 1.75 1.86 1.77 2.35 2.97 2.70 1.53 1.18 1.50 1.96 2.25 2.47 2.74 2.45 2.47 2.54
2.43 2.70 2.49 1.89 1.84 1.91 1.32 1.09 0.88 0.97 0.87 0.88 0.81 0.81 0.69 0.56 0.46 0.43 0.47 0.47 0.50 0.66 1.26 1.87 2.53 3.07 3.04 2.73 2.67 2.86 3.05 2.58 2.07 1.56 1.31 1.34 1.57 1.96 2.29 2.16 2.40 2.94 3.29 3.28

GFSCGP_prec_precacc_291.txt.gz
Total_Precipitation_Accumulation
0.00 0.00 0.00 0.01 0.01 0.03 0.19 0.43 1.23 1.92 2.24 3.47 3.24 2.75 1.77 1.45 1.10 1.35 0.89 0.21 0.07 0.11 0.06 0.02 0.07 0.10 0.05 0.04 0.07 0.13 0.28 0.42 0.64 0.67 0.71 0.83 0.66 0.84 0.97 1.06 1.02 1.21 1.12 1.55
0.00 0.00 0.00 0.00 0.00 0.02 0.03 0.37 0.97 1.27 1.48 2.35 3.78 2.98 2.63 1.93 1.13 1.02 1.27 0.69 0.26 0.20 0.16 0.04 0.05 0.05 0.04 0.03 0.03 0.15 0.31 0.40 0.34 0.22 0.16 0.53 0.87 1.41 1.82 1.16 1.15 1.36 0.91 1.25
0.00 0.00 0.00 0.00 0.02 0.00 0.06 0.30 0.68 0.92 0.65 1.28 3.04 4.17 3.32 2.33 1.66 1.40 0.82 0.61 0.47 0.20 0.21 0.22 0.12 0.05 0.04 0.01 0.01 0.02 0.14 0.25 0.29 0.27 0.30 0.92 1.70 2.50 2.25 2.17 1.09 0.77 0.99 0.93
0.00 0.00 0.00 0.00 0.00 0.01 0.13 0.20 0.62 1.37 0.81 0.97 0.70 2.82 4.26 2.50 2.11 1.81 0.81 0.58 0.39 0.33 0.40 0.45 0.24 0.10 0.03 0.03 0.05 0.04 0.14 0.24 0.20 0.34 0.28 0.75 1.49 1.71 1.25 0.92 0.74 0.82 1.08 1.10
0.00 0.00 0.01 0.00 0.02 0.04 0.06 0.18 0.56 0.67 0.63 0.29 0.37 0.90 1.93 2.18 2.12 2.10 0.92 0.47 0.55 0.77 0.31 0.22 0.16 0.18 0.21 0.15 0.39 0.34 0.22 0.32 0.31 0.41 0.80 0.70 0.90 1.01 1.24 1.16 1.46 1.46 1.28 1.63
0.00 0.00 0.00 0.00 0.03 0.04 0.06 0.08 0.32 0.59 0.46 0.46 0.27 0.31 1.05 1.68 1.07 1.43 0.93 0.49 0.36 0.55 0.34 0.34 0.45 0.33 0.32 0.56 0.88 0.40 0.27 0.26 0.44 0.52 0.60 0.91 1.60 2.16 2.14 2.56 1.73 1.07 1.05 2.07
0.00 0.00 0.00 0.00 0.01 0.02 0.03 0.06 0.34 0.42 0.46 0.74 0.29 0.26 0.56 0.90 0.63 0.64 1.18 0.88 0.68 0.64 0.85 0.45 0.51 0.30 0.27 0.26 0.50 0.24 0.29 0.28 0.27 0.41 0.46 0.77 2.08 3.52 2.99 2.41 1.32 1.29 1.21 1.46
0.00 0.00 0.00 0.00 0.00 0.01 0.01 0.01 0.13 0.31 0.40 0.60 0.36 0.73 0.42 0.25 0.29 0.49 0.63 0.82 1.36 1.20 0.91 1.00 0.75 0.49 0.27 0.20 0.20 0.10 0.30 0.29 0.31 0.51 0.75 1.96 5.19 4.14 2.53 2.25 1.81 0.99 1.13 1.27
0.00 0.00 0.00 0.00 0.00 0.00 0.00 0.01 0.04 0.13 0.18 0.37 0.43 0.76 0.47 0.21 0.26 0.26 0.51 0.92 1.19 1.16 1.04 2.61 1.39 0.93 0.60 0.17 0.13 0.25 0.58 0.43 0.49 0.72 1.75 3.07 3.59 3.74 3.65 3.26 2.52 1.37 1.38 1.34
0.00 0.00 0.00 0.00 0.00 0.01 0.00 0.01 0.03 0.07 0.23 0.24 0.58 1.10 1.22 0.55 1.14 0.66 0.43 0.61 0.67 1.16 1.24 1.29 1.22 1.05 0.84 0.51 0.38 0.41 0.60 0.63 0.93 1.41 2.19 2.15 2.72 2.45 2.29 2.32 1.85 1.43 2.08 2.60
0.01 0.00 0.01 0.00 0.02 0.03 0.01 0.00 0.01 0.01 0.11 0.32 0.58 0.94 1.09 0.90 1.48 1.35 0.80 0.48 0.53 0.59 1.05 1.72 2.33 2.69 2.06 1.70 1.46 1.05 1.36 2.04 2.59 2.70 2.81 3.25 3.00 2.03 1.65 1.53 1.31 1.23 1.72 2.04
0.02 0.01 0.01 0.01 0.03 0.09 0.12 0.07 0.06 0.02 0.16 0.21 0.30 0.71 0.81 0.93 0.98 1.22 1.87 1.11 0.88 0.70 0.95 1.17 1.72 3.07 4.51 3.08 3.66 4.78 4.07 4.04 4.32 3.85 3.39 3.44 2.58 2.28 1.52 0.98 1.07 1.72 1.70 1.63
0.09 0.06 0.06 0.09 0.08 0.03 0.00 0.02 0.17 0.14 0.14 0.07 0.13 0.27 0.47 0.66 1.21 1.48 2.08 1.93 1.37 1.78 2.54 1.44 1.30 1.67 3.06 3.07 3.12 6.18 7.90 7.37 5.90 4.16 3.70 2.64 2.74 1.73 1.42 1.10 0.83 0.93 1.34 1.64
0.21 0.06 0.02 0.19 0.23 0.09 0.02 0.02 0.01 0.06 0.09 0.03 0.06 0.15 0.50 0.76 1.51 0.81 1.40 2.44 2.00 1.97 1.98 2.61 2.71 2.95 3.68 4.57 4.87 5.43 5.15 4.93 5.26 3.84 3.87 2.91 2.83 2.63 1.96 1.74 1.49 1.19 1.17 0.96
0.12 0.02 0.00 0.03 0.01 0.01 0.04 0.04 0.03 0.01 0.01 0.06 0.37 0.15 0.71 0.48 0.41 0.77 0.62 0.58 0.65 0.87 1.02 1.14 1.56 1.63 2.77 3.77 3.25 4.28 4.52 4.02 3.34 3.84 4.88 4.70 3.79 3.22 3.07 3.31 2.82 2.06 1.64 1.07
0.11 0.04 0.00 0.00 0.01 0.00 0.01 0.01 0.01 0.05 0.13 0.07 0.26 0.50 0.32 0.51 0.56 0.49 0.91 1.35 1.41 1.10 0.90 1.02 1.47 1.49 1.60 1.93 2.07 2.93 4.39 5.01 3.63 2.75 2.84 3.73 4.61 5.07 4.19 4.01 3.73 4.09 3.24 2.34
0.17 0.16 0.15 0.06 0.06 0.02 0.06 0.01 0.01 0.01 0.04 0.05 0.13 0.64 0.61 0.63 0.70 0.84 0.65 1.02 1.80 1.67 1.35 1.11 1.12 1.50 1.40 1.32 1.19 1.23 1.84 2.99 3.77 4.01 3.34 3.26 3.68 5.13 5.42 4.29 4.23 4.38 4.28 4.33
0.16 0.22 0.23 0.15 0.14 0.19 0.07 0.06 0.04 0.07 0.08 0.20 0.35 0.30 0.48 0.51 0.23 0.34 0.47 0.62 1.03 1.63 1.73 1.54 1.24 1.28 1.20 1.50 1.69 1.28 1.21 1.35 1.93 2.79 3.55 3.92 3.59 4.40 5.19 4.33 3.68 3.72 4.22 4.64
0.09 0.24 0.25 0.17 0.32 0.25 0.11 0.08 0.04 0.06 0.16 0.21 0.23 0.37 1.04 0.81 0.44 0.34 0.43 0.38 0.43 0.86 0.78 1.05 1.47 1.38 1.71 1.63 1.87 2.10 1.97 1.51 1.76 1.95 2.58 3.62 4.84 4.91 5.04 5.34 4.68 4.34 4.28 3.98
0.14 0.28 0.39 0.26 0.62 0.79 0.60 0.21 0.03 0.03 0.27 0.40 0.29 0.36 0.99 0.65 0.72 0.54 0.39 0.28 0.26 0.55 0.38 0.33 0.46 0.83 1.25 1.98 2.14 2.32 2.67 2.18 1.92 2.22 2.20 2.13 2.48 3.15 3.63 4.33 4.73 4.75 5.00 4.67
0.54 0.52 0.44 0.42 0.76 0.73 0.43 0.21 0.05 0.23 0.35 0.29 0.28 0.63 0.76 0.58 0.56 0.70 0.67 0.69 0.17 0.22 0.43 0.24 0.23 0.36 0.60 0.92 1.35 2.05 1.89 2.19 2.97 2.87 2.70 2.45 2.34 2.61 2.93 3.04 3.16 3.37 3.25 3.21
0.84 0.96 0.70 0.60 0.94 1.01 0.55 0.45 0.36 0.36 0.34 0.45 0.41 0.61 1.09 0.86 0.82 0.58 0.45 0.39 0.39 0.23 0.62 0.51 0.31 0.41 0.48 0.80 1.18 1.63 2.01 1.90 2.30 2.84 3.41 3.73 3.74 3.56 3.15 3.12 3.89 3.67 3.30 3.29
0.91 0.76 0.71 0.78 0.98 0.99 0.64 0.50 0.29 0.28 0.47 0.58 0.60 0.59 0.74 0.70 0.56 0.49 0.40 0.23 0.19 0.21 0.67 0.73 0.39 0.47 0.89 1.13 1.18 1.35 1.25 1.34 1.50 1.73 2.44 2.55 2.97 3.26 3.12 3.33 3.47 3.28 3.28 3.23
1.19 0.92 0.82 0.80 0.79 0.79 0.77 0.52 0.41 0.21 0.32 0.27 0.27 0.39 0.62 0.58 0.49 0.38 0.35 0.34 0.34 0.32 0.52 1.61 1.44 0.98 1.44 1.39 1.40 1.30 0.99 0.97 1.16 1.66 2.06 1.52 1.29 1.53 1.45 1.49 1.54 1.74 1.72 1.98
2.36 2.40 1.52 1.02 1.06 1.18 1.19 0.93 0.61 0.60 0.51 0.50 0.43 0.32 0.31 0.34 0.41 0.48 0.42 0.39 0.43 0.64 0.74 1.32 2.00 2.17 2.05 2.47 2.57 2.37 1.89 2.37 3.02 2.77 1.57 1.22 1.51 1.97 2.26 2.48 2.74 2.45 2.47 2.54
2.43 2.70 2.49 1.89 1.84 1.91 1.32 1.09 0.88 0.97 0.87 0.88 0.81 0.81 0.69 0.56 0.46 0.43 0.47 0.47 0.50 0.66 1.26 1.88 2.57 3.24 3.40 3.29 3.30 3.18 3.29 2.79 2.17 1.59 1.31 1.34 1.57 1.96 2.29 2.16 2.40 2.94 3.29 3.28

GFSCGP_prec_precacc_297.txt.gz
Total_Precipitation_Accumulation
0.00 0.00 0.00 0.01 0.01 0.03 0.19 0.43 1.23 1.92 2.24 3.47 3.24 2.75 1.77 1.45 1.10 1.35 0.89 0.21 0.07 0.11 0.06 0.02 0.07 0.10 0.05 0.04 0.07 0.13 0.28 0.42 0.64 0.67 0.71 0.83 0.66 0.84 0.97 1.07 1.08 1.32 1.21 1.69
0.00 0.00 0.00 0.00 0.00 0.02 0.03 0.37 0.97 1.27 1.48 2.35 3.78 2.98 2.63 1.93 1.13 1.02 1.27 0.69 0.26 0.20 0.16 0.04 0.05 0.05 0.04 0.03 0.03 0.15 0.31 0.40 0.34 0.22 0.16 0.53 0.87 1.41 1.83 1.16 1.16 1.48 1.06 1.26
0.00 0.00 0.00 0.00 0.02 0.00 0.06 0.30 0.68 0.92 0.65 1.28 3.04 4.17 3.32 2.33 1.66 1.40 0.82 0.61 0.47 0.20 0.21 0.22 0.12 0.05 0.04 0.01 0.01 0.02 0.14 0.25 0.29 0.27 0.30 0.92 1.70 2.50 2.26 2.19 1.10 0.80 1.09 0.96
0.00 0.00 0.00 0.00 0.00 0.01 0.13 0.20 0.62 1.37 0.81 0.97 0.70 2.82 4.26 2.50 2.11 1.81 0.81 0.58 0.39 0.33 0.40 0.45 0.24 0.10 0.03 0.03 0.05 0.04 0.14 0.24 0.21 0.35 0.28 0.75 1.49 1.71 1.25 0.97 0.84 0.87 1.14 1.12
0.00 0.00 0.01 0.00 0.02 0.04 0.06 0.18 0.56 0.67 0.63 0.29 0.37 0.90 1.93 2.18 2.12 2.10 0.92 0.47 0.55 0.77 0.31 0.22 0.16 0.18 0.21 0.15 0.39 0.34 0.23 0.33 0.32 0.42 0.81 0.70 0.90 1.01 1.24 1.22 1.60 1.51 1.30 1.63
0.00 0.00 0.00 0.00 0.03 0.04 0.06 0.08 0.32 0.59 0.46 0.46 0.27 0.31 1.05 1.68 1.07 1.43 0.93 0.49 0.36 0.55 0.34 0.34 0.45 0.33 0.32 0.56 0.88 0.40 0.27 0.27 0.45 0.52 0.60 0.91 1.60 2.16 2.18 2.62 1.84 1.10 1.05 2.07
0.00 0.00 0.00 0.00 0.01 0.02 0.03 0.06 0.34 0.42 0.46 0.74 0.29 0.26 0.56 0.90 0.63 0.64 1.18 0.88 0.68 0.64 0.85 0.45 0.51 0.30 0.27 0.26 0.50 0.24 0.29 0.29 0.27 0.41 0.46 0.77 2.08 3.52 3.03 2.47 1.41 1.32 1.21 1.46
0.00 0.00 0.00 0.00 0.00 0.01 0.01 0.01 0.13 0.31 0.40 0.60 0.36 0.73 0.42 0.25 0.29 0.49 0.63 0.82 1.36 1.20 0.91 1.00 0.75 0.49 0.27 0.20 0.20 0.10 0.30 0.30 0.31 0.51 0.75 1.96 5.19 4.15 2.60 2.32 1.93 0.99 1.13 1.27
0.00 0.00 0.00 0.00 0.00 0.00 0.00 0.01 0.04 0.13 0.18 0.37 0.43 0.76 0.47 0.21 0.26 0.26 0.51 0.92 1.19 1.16 1.04 2.61 1.39 0.93 0.60 0.17 0.13 0.25 0.59 0.44 0.50 0.72 1.75 3.07 3.59 3.76 3.70 3.36 2.56 1.37 1.38 1.34
0.00 0.00 0.00 0.00 0.00 0.01 0.00 0.01 0.03 0.07 0.23 0.24 0.58 1.10 1.22 0.55 1.14 0.66 0.43 0.61 0.67 1.16 1.24 1.29 1.22 1.05 0.84 0.51 0.38 0.41 0.61 0.64 0.94 1.41 2.19 2.15 2.72 2.46 2.35 2.40 1.86 1.43 2.08 2.60
0.01 0.00 0.01 0.00 0.02 0.03 0.01 0.00 0.01 0.01 0.11 0.32 0.58 0.94 1.09 0.90 1.48 1.35 0.80 0.48 0.53 0.59 1.05 1.72 2.33 2.69 2.06 1.70 1.46 1.05 1.37 2.05 2.59 2.70 2.81 3.25 3.00 2.04 1.71 1.56 1.31 1.23 1.72 2.04
0.02 0.01 0.01 0.01 0.03 0.09 0.12 0.07 0.06 0.02 0.16 0.21 0.30 0.71 0.81 0.93 0.98 1.22 1.87 1.11 0.88 0.70 0.95 1.17 1.72 3.07 4.51 3.08 3.66 4.78 4.07 4.04 4.32 3.85 3.39 3.44 2.59 2.28 1.55 0.99 1.07 1.72 1.70 1.63
0.09 0.06 0.06 0.09 0.08 0.03 0.00 0.02 0.17 0.14 0.14 0.07 0.13 0.27 0.47 0.66 1.21 1.48 2.08 1.93 1.37 1.78 2.54 1.44 1.30 1.67 3.06 3.07 3.12 6.18 7.90 7.37 5.90 4.16 3.70 2.64 2.74 1.73 1.43 1.12 0.83 0.94 1.34 1.64
0.21 0.06 0.02 0.19 0.23 0.09 0.02 0.02 0.01 0.06 0.09 0.03 0.06 0.15 0.50 0.76 1.51 0.81 1.40 2.44 2.00 1.97 1.98 2.61 2.71 2.95 3.68 4.57 4.87 5.43 5.15 4.93 5.26 3.84 3.87 2.91 2.83 2.64 1.98 1.77 1.55 1.20 1.17 0.96
0.12 0.02 0.00 0.03 0.01 0.01 0.04 0.04 0.03 0.01 0.01 0.06 0.37 0.15 0.71 0.48 0.41 0.77 0.62 0.58 0.65 0.87 1.02 1.14 1.56 1.63 2.77 3.77 3.25 4.28 4.52 4.02 3.34 3.84 4.88 4.70 3.80 3.25 3.11 3.42 2.87 2.06 1.64 1.07
0.11 0.04 0.00 0.00 0.01 0.00 0.01 0.01 0.01 0.05 0.13 0.07 0.26 0.50 0.32 0.51 0.56 0.49 0.91 1.35 1.41 1.10 0.90 1.02 1.47 1.49 1.60 1.93 2.07 2.93 4.39 5.01 3.63 2.75 2.84 3.73 4.63 5.14 4.32 4.21 3.76 4.09 3.24 2.34
0.17 0.16 0.15 0.06 0.06 0.02 0.06 0.01 0.01 0.01 0.04 0.05 0.13 0.64 0.61 0.63 0.70 0.84 0.65 1.02 1.80 1.67 1.35 1.11 1.12 1.50 1.40 1.32 1.19 1.23 1.84 2.99 3.77 4.01 3.34 3.31 3.80 5.36 5.73 4.51 4.26 4.38 4.28 4.33
0.16 0.22 0.23 0.15 0.14 0.19 0.07 0.06 0.04 0.07 0.08 0.20 0.35 0.30 0.48 0.51 0.23 0.34 0.47 0.62 1.03 1.63 1.73 1.54 1.24 1.28 1.20 1.50 1.69 1.28 1.21 1.35 1.93 2.79 3.55 4.09 4.00 4.75 5.39 4.41 3.70 3.72 4.22 4.64
0.09 0.24 0.25 0.17 0.32 0.25 0.11 0.08 0.04 0.06 0.16 0.21 0.23 0.37 1.04 0.81 0.44 0.34 0.43 0.38 0.43 0.86 0.78 1.05 1.47 1.38 1.71 1.63 1.87 2.10 1.97 1.51 1.76 1.97 2.83 4.17 5.31 5.27 5.56 5.66 4.78 4.36 4.28 3.98
0.14 0.28 0.39 0.26 0.62 0.79 0.60 0.21 0.03 0.03 0.27 0.40 0.29 0.36 0.99 0.65 0.72 0.54 0.39 0.28 0.26 0.55 0.38 0.33 0.46 0.83 1.25 1.98 2.14 2.32 2.67 2.18 1.93 2.60 2.87 2.92 3.75 4.82 4.64 4.51 4.76 4.75 5.00 4.68
0.54 0.52 0.44 0.42 0.76 0.73 0.43 0.21 0.05 0.23 0.35 0.29 0.28 0.63 0.76 0.58 0.56 0.70 0.67 0.69 0.17 0.22 0.43 0.24 0.23 0.36 0.60 0.92 1.35 2.05 1.89 2.20 3.17 3.24 3.74 4.37 3.61 3.22 3.15 3.08 3.19 3.44 3.35 3.26
0.84 0.96 0.70 0.60 0.94 1.01 0.55 0.45 0.36 0.36 0.34 0.45 0.43 0.64 1.11 0.87 0.83 0.60 0.45 0.39 0.39 0.23 0.62 0.51 0.31 0.41 0.48 0.80 1.18 1.64 2.06 2.10 2.70 3.94 5.24 5.35 4.63 3.98 3.23 3.16 3.96 3.78 3.40 3.33
0.91 0.76 0.71 0.78 0.98 0.99 0.64 0.50 0.29 0.28 0.47 0.58 0.62 0.62 0.76 0.74 0.62 0.55 0.43 0.24 0.19 0.21 0.67 0.73 0.39 0.47 0.90 1.15 1.25 1.53 1.74 2.03 2.59 2.90 3.36 3.41 3.55 3.41 3.13 3.36 3.51 3.32 3.33 3.26
1.19 0.92 0.82 0.80 0.79 0.79 0.77 0.52 0.41 0.21 0.32 0.27 0.27 0.39 0.62 0.58 0.50 0.41 0.36 0.34 0.34 0.32 0.52 1.61 1.44 0.99 1.48 1.50 1.64 1.60 1.62 1.86 2.31 2.80 2.82 2.06 1.46 1.58 1.49 1.52 1.60 1.81 1.73 1.99
2.38 2.41 1.52 1.02 1.06 1.18 1.19 0.93 0.61 0.60 0.51 0.50 0.43 0.32 0.31 0.34 0.41 0.48 0.42 0.39 0.43 0.64 0.74 1.32 2.00 2.19 2.06 2.50 2.70 3.01 2.80 3.22 3.65 3.00 1.73 1.37 1.57 2.06 2.37 2.56 2.77 2.45 2.47 2.54
2.44 2.70 2.49 1.89 1.84 1.91 1.32 1.09 0.88 0.97 0.87 0.88 0.81 0.81 0.69 0.56 0.46 0.43 0.47 0.47 0.50 0.66 1.26 1.88 2.57 3.26 3.44 3.35 3.36 3.33 3.40 3.02 2.54 1.72 1.41 1.46 1.66 2.04 2.35 2.18 2.40 2.94 3.29 3.28